Who is Who? Have any 10-28-2011 Objects Been Identified?
Has anyone determined what any of the cubesat objects launched 10-28-2011? I have not seen any comments or guesses to date.
Below are the KEPs for 11-06-2011 (Julian Day 310).
OBJECTB 1 37850U 11061B 11308.76442835 .00000487 00000-0 51357-4 0 00102 2 37850 101.7014 241.9143 0255857 271.5894 085.7797 14.77499614001074 OBJECTC 1 37851U 11061C 11309.84777332 .00008960 00000-0 73526-3 0 00112 2 37851 101.7023 243.4860 0255334 269.3328 087.8609 14.77579841001239 OBJECTD 1 37852U 11061D 11309.84776821 .00009991 00000-0 82038-3 0 00095 2 37852 101.6991 243.4794 0254701 269.4652 087.7353 14.77590488001232 OBJECTE 1 37853U 11061E 11309.84752184 .00010094 00000-0 82755-3 0 00241 2 37853 101.6964 243.4844 0254748 269.5275 087.6729 14.77633435001249 OBJECTF 1 37854U 11061F 11309.77884153 .00009643 00000-0 78481-3 0 00111 2 37854 101.6999 243.3883 0255434 269.5376 087.6562 14.77807895001210 OBJECTG 1 37855U 11061G 11307.81545085 -.00000100 00000-0 39474-5 0 00091 2 37855 101.6982 240.5467 0257034 274.8376 082.3762 14.77740616000925
participants (1)
-
Ray Hoad